Location: Dresden
(51.0500°N, 13.7500°E)
Time: 23:06:55
(UTC+00:00)

ISS - Visible Passes

Search period start: 27 July 2021 00:00
Search period end: 06 August 2021 00:00
Orbit: 419 x 421 km, 51.6° (Epoch: 27 July)

Date Brightness Start Highest point End Pass type
(mag) Time Alt. Az. Time Alt. Az. Time Alt. Az.
27 Jul -3.7 19:34:10 10° WNW 19:37:33 70° SSW 19:40:55 10° ESE visible
27 Jul -2.1 21:11:24 10° W 21:13:58 20° SW 21:14:22 20° SSW visible
28 Jul -2.5 20:23:52 10° W 20:26:50 28° SSW 20:28:40 17° SSE visible
29 Jul -2.9 19:36:28 10° W 19:39:39 39° SSW 19:42:50 10° SE visible
30 Jul -1.4 20:26:52 10° WSW 20:28:43 14° SW 20:30:24 11° S visible
31 Jul -1.8 19:39:05 10° W 19:41:39 20° SW 19:44:13 10° SSE visible
